Weather in Saudakent

Kazakhstan     43°44′14″N   69°54′47″E
temp.,
°C
wind,
m/s
gust,
m/s
humid.,
%
clouds,
%
prec.,
mm/h
press.,
hPa
HPBL,
m
6 march, sat
sat600:00+2ese49801 0.0 1026267
03:00+1e598467 0.0 1023233
06:000e488583 0.0 1021232
09:00+1e5777100 0.0 1019262
12:00+6e455777 0.0 1016526
15:00+9ne3348100 0.0 1014749
18:00+8ne3348100 0.0 1015663
21:00+6n1259100 0.0 101722
7 march, sun
sun700:00+5nnw0165100 0.0 101822
03:00+4w2369100 0.1 101862
06:00+4nw1184100 1.3 101966
09:00+4sse2489100 1.1 1020199
12:00+7wsw4676100 1.4 1020669
15:00+7sw7977100 0.0 1019708
18:00+7sw796985 0.0 1019776
21:00+5ssw378058 0.0 1019231
8 march, mon
mon800:00+4ssw458147 0.0 101996
03:00+4ssw458119 0.0 101878
06:00+3sw488348 0.0 1019143
09:00+5ssw4879100 0.0 1020220
12:00+10wsw6960100 0.0 10201120
15:00+12wsw71051100 0.0 10191467
18:00+12w5751100 0.0 10201184
21:00+7nne126986 0.0 102122
9 march, tue
tue900:00+7se337094 0.0 102124
03:00+6se347192 0.0 102029
06:00+6sse347746 0.0 101927
09:00+7sse227061 0.0 101826
12:00+13se134559 0.0 1016513
15:00+16e223657 0.0 10131286
18:00+15ese454174 0.0 1012675
21:00+11ese5957100 0.0 1012161
10 march, wed
wed1000:00+10se3462100 0.0 101061
03:00+10sse3461100 0.0 100955
06:00+10sw4659100 0.0 1008102
09:00+11sw3563100 0.1 100895
12:00+14sw81356100 0.9 10081574
15:00+12w161855100 0.2 10111607
18:00+10w11145779 0.3 10131513
21:00+7w7126459 0.0 1017628